EST,Max TemperatureF,Mean TemperatureF,Min TemperatureF,Max Dew PointF,MeanDew PointF,Min DewpointF,Max Humidity, Mean Humidity, Min Humidity, Max Sea Level PressureIn, Mean Sea Level PressureIn, Min Sea Level PressureIn, Max VisibilityMiles, Mean VisibilityMiles, Min VisibilityMiles, Max Wind SpeedMPH, Mean Wind SpeedMPH, Max Gust SpeedMPH,PrecipitationIn, CloudCover, Events, WindDirDegrees
2012-12-1,61,48,34,46,41,33,97,81,55,30.38,30.32,30.29,10,10,5,9,1,,0.00,1,,235
2012-12-2,66,52,38,49,44,38,99,77,51,30.33,30.29,30.23,10,10,10,20,3,26,0.00,3,,268
2012-12-3,68,58,47,52,50,47,99,77,56,30.33,30.28,30.24,10,10,10,12,2,,0.00,5,,257
2012-12-4,68,56,43,53,49,44,100,81,55,30.30,30.24,30.17,10,9,4,16,2,25,0.00,4,,267
2012-12-5,58,48,37,56,41,31,100,71,40,30.26,30.21,30.15,10,9,3,10,2,,0.13,3,Rain,19
2012-12-6,52,42,33,45,36,30,96,77,53,30.22,30.17,30.12,10,10,7,12,7,,0.02,6,Rain,86
2012-12-7,63,52,40,52,46,40,100,88,65,30.11,30.04,29.97,10,10,7,8,4,,0.01,2,,86
2012-12-8,65,56,47,56,52,48,100,92,66,30.04,30.00,29.97,10,9,3,10,2,17,0.00,6,Rain,265
2012-12-9,69,58,47,58,53,48,100,86,59,30.09,30.02,29.93,10,8,3,12,2,,0.11,4,Rain,174
2012-12-10,57,50,42,57,53,40,100,97,87,29.92,29.77,29.68,10,8,3,17,3,29,1.29,7,Rain,276
2012-12-11,41,37,33,41,34,30,99,85,75,30.16,30.01,29.84,10,10,10,9,5,,0.70,6,,353
2012-12-12,41,36,32,34,31,29,93,83,73,30.28,30.24,30.17,10,10,10,12,4,,0.00,0,,79
2012-12-13,52,42,32,32,29,27,88,67,43,30.35,30.30,30.25,10,10,10,15,6,,0.00,0,,87
2012-12-14,54,40,26,38,30,24,93,70,36,30.37,30.29,30.21,10,10,10,7,2,,0.00,0,,216
2012-12-15,63,50,37,38,33,30,81,54,28,30.21,30.10,29.99,10,10,10,10,3,,0.00,3,Rain,103
2012-12-16,56,50,45,55,50,40,100,96,73,30.02,29.94,29.84,10,9,5,12,2,21,0.29,8,Rain,216
2012-12-17,55,49,43,54,49,44,100,98,89,29.85,29.75,29.63,10,7,0,12,2,31,0.02,6,Fog-Rain-Thunderstorm,90
2012-12-18,48,40,32,48,40,32,100,85,62,29.93,29.81,29.67,10,10,5,18,7,29,0.04,5,Rain,285
2012-12-19,56,44,32,41,36,31,96,78,58,30.10,30.04,29.92,10,10,10,13,2,,0.00,0,,271
2012-12-20,55,46,36,49,42,31,100,81,60,30.08,29.79,29.54,10,9,5,23,8,43,0.63,5,Rain,174
2012-12-21,35,33,30,32,27,23,96,83,69,29.96,29.75,29.62,10,6,1,25,16,34,0.01,8,Snow,297
2012-12-22,37,32,27,25,22,20,77,71,57,30.21,30.12,29.96,10,10,10,24,12,36,0.00,4,,287
2012-12-23,50,36,22,41,27,18,100,71,40,30.13,30.07,29.99,10,9,2,15,3,23,0.01,3,Rain,267
2012-12-24,49,45,41,49,45,41,100,100,100,30.01,29.89,29.80,10,4,0,9,3,,0.56,8,Fog-Rain,273
2012-12-25,49,45,41,45,43,40,100,91,76,30.07,29.99,29.93,10,8,2,13,4,14,0.05,5,Rain,84
2012-12-26,47,40,33,45,39,31,100,91,76,29.92,29.63,29.43,10,8,3,24,15,33,0.58,8,Rain-Snow,105
2012-12-27,32,32,30,31,29,28,96,90,87,30.09,30.00,29.79,10,10,7,15,10,23,0.00,8,,324
2012-12-28,41,34,28,36,31,28,96,85,71,30.08,30.00,29.80,10,10,10,13,3,,0.00,7,Rain,93
2012-12-29,42,36,30,41,34,25,100,91,75,30.08,29.82,29.65,10,7,1,16,8,28,0.23,8,Rain-Snow,304
2012-12-30,34,29,23,28,23,19,96,77,63,30.40,30.31,30.09,10,9,2,15,8,25,0.00,4,Snow,300
2012-12-31,39,30,21,31,26,20,96,78,59,30.34,30.23,30.10,10,10,7,8,1,,0.00,4,,266